Карточка аэропорта UMKK

Внимание!
Информация на этой странице в стадии наполнения.
Если вы не увидели какой-то информации, или заметили неточность - пожалуйста сообщите нам!
Спасибо!
Команда RU-STAFF
Название аэропортаХраброво
Название аэропорта (англ.)Khrabrovo
Превышение43 ft. (13.1 m.)
Координаты54°53.4', 20°35.55'
Высота перехода4000ft
Эшелон переходаFL50 (QNH>=1013hPa); FL60 (QNH<1013hPa); FL50 (QNH<977hPa);
Коды ответчика6620-6637
Зона ОрВДКалининград РПИ (UMKK)
Данные METARUMKK 300530Z 23003MPS 9000 SCT020 08/08 Q1010 R24/95D NOSIG RMK QFE757/1009
Проноз погоды (TAF)UMKK 300457Z 3006/0106 23005G10MPS 9999 SCT020CB BECMG 3016/3018 19003G08MPS
NOTAMshow/hide NOTAM
AWOS   TABLE

Информация о ВПП

ВПП Длина ВПП (м.) Покрытие Курс ВПП Частота ILS
243350Асфальтобетон240109.5
063350Асфальтобетон60110.3

Диспетчерские позиции

Позывной Наименование органа УВД Частота
UMKK_APPКалининград-Подход126.0
UMKK_TWRКалининград-Вышка127.2



Спутниковое изображение